星链-34504 (STARLINK-34504)

导读

STARLINK-34504是美国太空探索技术公司(SpaceX)星链(Starlink)星座的一颗卫星,于2025年6月25日发射入轨。星链项目旨在通过低轨卫星星座为全球偏远、欠发达地区提供低延迟、高速的宽带互联网服务,该卫星的成功发射进一步推进了星链星座的组网进程,助力扩大全球卫星互联网的覆盖范围。

Basic Information
目录编号:
64600
目录名称:
STARLINK-34504
国际标识:
2025-137G
轨道中心:
EARTH
卫星名称:
星链-34504
卫星全名:
星链-34504 (STARLINK-34504)
卫星状态:
在轨 (已飞行353 天)
发射日期:
2025-06-25 UTC
国别 :
美国 (US)
星等 :
--
Orbit Information
数据来源 国际轨道数据 AOE轨道数据
星历时间 2026-06-13T20:47:41+0800
10小时前
查看轨道信息
2026-06-13T05:00:00+0800
1天前
查看轨道信息
半长轴 6853.379km 6853.357km
偏心率 0.0001246 0.0001244
轨道倾角 53.158° 53.156°
近地点辐角 84.146° 77.209°
升交点赤经 250.434° 253.489°
平近点角 275.968° 255.568°
近地点 474.388km 474.367km
远地点 476.096km 476.073km
周期 94.106分钟 94.105分钟
每日圈数 15.301911 15.301985
Detailed Information
固有亮度:
5
最大亮度:
2.5
卫星平台:
Starlink V1.0
覆盖范围:
全球
运营商:
太空探索技术公司
运营商所在国:
美国
制造商(研发单位):
太空探索技术公司
制造商所在国:
美国
使用方式:
暂无
Satellite Introduction
Starlink 计划是 SpaceX 推出的全球卫星互联网项目,通过发射低轨道卫星,为全球尤其是偏远地区提供高速、低延迟的互联网服务。自 2019 年起,Starlink 已部署数千颗卫星,旨在缩小全球数字鸿沟,推动互联网普及。该项目还为军事、航空等行业提供通信支持,带来广泛经济效益。
2D Orbit Map
3D Orbit Map
Orbit Altitude Analysis Chart
Orbit Inclination Analysis Chart
Orbit Comprehensive Analysis Chart
View Comprehensive Chart